STARLINK-2599 (48383 NORAD) Tracking and Keplerian Element Data

This shows tracking and keplerian element data for the satellite.

Feedback or suggestion? Click here.




ElementValue
Catalog48383
NameSTARLINK-2599
Epoch Orbit1458
Epoch Day210.77023178
Epoch Year2021
RAAN351.0726
Inclination53.0484
Eccentricity0.0001441
Argument of Perigee97.5268
Mean Anonmoly262.5884
Mean Motion15.06386811
Decay Rate-3.36E-06
L11 48383U 21038AG 21210.77023178 -.00000336 00000-0 -36755-5 0 9996
L22 48383 53.0484 351.0726 0001441 97.5268 262.5884 15.06386811 14585

Live tracking and technical data element details for STARLINK-2599 (NORAD 48383). STARLINK-2599 can be tracked NOW for your location showing map with azimuth and elevation plus other details from your city location.

Track the satellite on the map from your city or location and see movement details for azimuth, elevation, latitude, longitude, range, height, and movement on the map or in text.







IsCatalogInMostPopularTable: catalog: 48383, numindb: 29
Update: records affected: 1



GetName: 48383 STARLINK-2599

Hit Count: updated at: Sat, 31 Jul 2021 16:01:28 GMT